Preview of NWS' New Version of Forecast
This preview is not operational and should not be used for support decisions.

Regional Weather Roundup (RWR)

Issued by National Weather Service (NWS)

                            
000
ASUS42 KTBW 230016
RWRFL 
FLORIDA REGIONAL WEATHER ROUNDUP
NATIONAL WEATHER SERVICE TAMPA BAY RUSKIN FL
800 PM EDT FRI MAR 22 2019

NOTE: "FAIR" INDICATES FEW OR NO CLOUDS BELOW 12,000 FEET WITH NO
SIGNIFICANT WEATHER AND/OR OBSTRUCTIONS TO VISIBILITY.

FLZ001>010-012>015-112-114-115-230100-
PANHANDLE FLORIDA
  
CITY           SKY/WX    TMP DP  RH WIND       PRES   REMARKS
PENSACOLA      FAIR      62  49  62 S7        30.09S                  
PENSACOLA NAS  FAIR      60  50  69 SW6       30.09S                  
MILTON NAS     FAIR      64  37  36 N8        30.09S                  
CRESTVIEW      FAIR      65  33  30 NW6       30.11R                  
DUKE FIELD     FAIR      66  32  28 NW5       30.08S                  
VALPARAISO     FAIR      64  47  55 W7        30.08F                  
MARY ESTHER    CLEAR     63  48  58 W12       30.08R                  
PANAMA CITY    FAIR      62  47  57 SW6       30.07R                  
TYNDALL AFB    FAIR      62  50  65 W10       30.09R                  
APALACHICOLA   FAIR      60  46  59 W8        30.08R                  

STATION/POSITION SKY/WX   TEMP    WIND        PRES    WAVE   SWELL
                          AIR SEA DIR/SP/G            HT/PER HT/PER
                          (F)     (DEG/KT/KT) (MB)    (FT/S) (FT/S)
30.1N   87.6W                                 1019.6F   2/ 3
29.2N   88.2W                     250/  4/  6 1020.5R   1/ 4   2/ 4
PANAMA CITY BEAC           63 66  280/ 13/ 15 1019.1R
TOWER C                    61     280/ 15/ 16 1019.1R

$$
FLZ011-016>038-118-127-128-134-139-239-230100-
NORTH FLORIDA
  
CITY           SKY/WX    TMP DP  RH WIND       PRES   REMARKS
MARIANNA       FAIR      65  34  31 W5        30.07R                  
TALLAHASSEE    FAIR      67  34  29 NW7       30.06R                  
PERRY          FAIR      60  49  68 SW6       30.08R                  
LIVE OAK       CLEAR     63  34  34 CALM      30.04R                  
CROSS CITY     FAIR      61  48  63 W8        30.08R                  
LAKE CITY      FAIR      63  32  31 W6        30.04R                  
GAINESVILLE    FAIR      69  43  38 W14       30.07R                  
WILLISTON        N/A    N/A N/A N/A MISG        N/A                   
PALATKA        FAIR     N/A N/A N/A W5        30.03R                  
MAYPORT NAS    FAIR      69  37  30 W7        30.01R                  
JACKSONVILLE   FAIR      62  34  35 W7        30.01R                  
JAX NAS        FAIR      71  29  21 W6        30.03R                  
JAX CECIL      CLEAR    N/A N/A N/A VRB5      30.02R                  
FERNANDINA BEA FAIR      66  32  27 W10       30.01R                  
ST AUGUSTINE   FAIR      67  35  30 W5        30.03R                  
PALM COAST     FAIR      68  37  31 W5        30.03R                  

STATION/POSITION SKY/WX   TEMP    WIND        PRES    WAVE   SWELL
                          AIR SEA DIR/SP/G            HT/PER HT/PER
                          (F)     (DEG/KT/KT) (MB)    (FT/S) (FT/S)
SHELL POINT      NOT AVBL
KEATON BEACH               62     250/ 13/ 15 1018.6R
CEDAR KEY                  62     290/  8/ 11 1018.5R
FERNANDINA                 68 63  240/  2/  5 1017.0R
30.7N   81.3W                 62                N/A     2/10   2/11
MAYPORT                    69 64  270/  6/ 11 1016.3R
31.4N   80.9W              65 62  250/ 10/ 12 1015.0R   2/10   2/10
ST AUGUSTINE               70 63  280/  2/  4 1016.7R

$$
FLZ040-043>046-052-053-057-058-063-144-230100-
INTERIOR CENTRAL FLORIDA
  
CITY           SKY/WX    TMP DP  RH WIND       PRES   REMARKS
OCALA          FAIR      62  44  51 SW9       30.08R                  
LEESBURG       FAIR      65  39  38 W9        30.07R                  
SANFORD        FAIR      67  37  33 W10       30.04R                  
ORLANDO EXEC   FAIR      69  35  28 W12       30.04R                  
ORLANDO INTL   FAIR      69  36  29 W14       30.04R                  
KISSIMMEE      FAIR      67  42  40 W9        30.06R                  
WINTER HAVEN   FAIR      66  40  38 W8        30.07R                  
LAKELAND       CLEAR     64  41  42 NW12      30.07R                  
BARTOW         FAIR      68  41  37 NW8       30.06R                  
SEBRING        FAIR      68  47  47 W10       30.06R                  
OKEECHOBEE     FAIR      64  45  48 CALM      30.05R                  

$$
FLZ041-047-054-059-064-141-147-230100-
EAST CENTRAL FLORIDA
  
CITY           SKY/WX    TMP DP  RH WIND       PRES   REMARKS
DAYTONA BEACH  FAIR      67  42  40 SW6       30.03R                  
DELAND         FAIR      70  37  30 W6        30.04R                  
NEW SMYRNA BEA CLEAR     64  52  63 S5        30.04R                  
JFK SPACE CTR  FAIR      68  47  46 NW6       30.02R                  
TITUSVILLE     CLEAR     72  43  35 NW3       30.03R                  
CAPE CANAVERAL FAIR      63  54  72 E3        30.01R                  
PATRICK AFB    FAIR      70  51  49 W8        30.02R                  
MELBOURNE      FAIR      69  47  45 W6        30.03R                  
VERO BEACH     FAIR      64  49  57 SE7       30.05R                  
FT PIERCE      FAIR      63  47  55 CALM      30.05R                  
STUART         CLEAR     68  46  45 SE6       30.06R                  

STATION/POSITION SKY/WX   TEMP    WIND        PRES    WAVE   SWELL
                          AIR SEA DIR/SP/G            HT/PER HT/PER
                          (F)     (DEG/KT/KT) (MB)    (FT/S) (FT/S)
28.5N   80.2W              66     170/  4/  8 1017.3R   4/ 8   5/ 8
28.9N   78.5W              70 74  280/ 16/ 21 1017.0R   7/ 8   3/10
TRIDENT PIER               71 67  270/  4/  6 1017.6R
28.4N   80.5W                 68                N/A     2/11   2/11
27.5N   80.2W                 69                N/A     3/11   2/11

$$
FLZ050-056-061-142-242-148-248-149-249-151-251-155-255-
160-260-230100-
WEST CENTRAL FLORIDA
  
CITY           SKY/WX    TMP DP  RH WIND       PRES   REMARKS
CRYSTAL RIVER  FAIR      59  46  63 W5        30.09R                  
INVERNESS      FAIR      61  45  55 CALM      30.09R                  
BROOKSVILLE    FAIR      61  46  57 NW8       30.09R                  
CLEARWATER AIR FAIR      61  43  51 NW7       30.08S                  
ST PETE CLEARW FAIR      61  45  55 NW9       30.08S                  
TAMPA INTL     FAIR      64  45  49 NW8       30.09R                  
TAMPA EXEC     FAIR      63  43  48 NW6       30.09R                  
PLANT CITY     FAIR      66  41  39 NW7       30.09R                  
MACDILL AFB    FAIR      64  46  53 NW6       30.08R                  
PETER O KNIGHT CLOUDY    64  46  52 NW6       30.09R                  
ST PETERSBURG  FAIR      66  47  50 NW9       30.06R                  
SARASOTA       FAIR      63  43  48 NW9       30.07R                  
VENICE         FAIR      66  50  55 NW9G15    30.09S                  

STATION/POSITION SKY/WX   TEMP    WIND        PRES    WAVE   SWELL
                          AIR SEA DIR/SP/G            HT/PER HT/PER
                          (F)     (DEG/KT/KT) (MB)    (FT/S) (FT/S)
27.3N   84.2W                 72                N/A     4/ 6
CLEARWATER BEACH           65 69  290/ 12/ 14 1018.8R
MIDDLE TAMPA BAY           66     320/ 13/ 16 1018.6R
VENICE                     67 71  300/ 11/ 13 1018.8R

$$
FLZ066-069-070-075>078-162-262-165-265-230100-
SOUTHWEST FLORIDA AND KEYS
  
CITY           SKY/WX    TMP DP  RH WIND       PRES   REMARKS
PUNTA GORDA    FAIR      66  46  48 NW9       30.10R                  
FT MYERS       FAIR      66  47  50 NW8       30.08R                  
SOUTHWEST INTL FAIR      66  48  52 NW8       30.09R                  
NAPLES         FAIR      67  51  56 NW9       30.09R                  
MARCO ISLAND   FAIR      66  51  58 NW9       30.09                   
IMMOKALEE      FAIR      66  50  55 W5        30.06R                  
MARATHON       FAIR      70  49  47 NW9       30.07R                  
KEY WEST NAS   FAIR      69  50  50 N10       30.09R                  
KEY WEST INTL  FAIR      69  53  56 N10       30.10R                  

STATION/POSITION SKY/WX   TEMP    WIND        PRES    WAVE   SWELL
                          AIR SEA DIR/SP/G            HT/PER HT/PER
                          (F)     (DEG/KT/KT) (MB)    (FT/S) (FT/S)
NAPLES                     68 72  240/ 11/ 13 1018.9R
26.0N   85.6W              70 79  340/  6/  8 1019.7
DRY TORTUGAS               68      30/ 12/ 14 1019.3R
SAND KEY                   67                 1019.1R
SOMBRERO KEY               69                 1018.0R
MOLASSES REEF              70 77  300/  6/  7 1018.6R

$$
FLZ067-068-071>074-168-172>174-230100-
SOUTHEAST FLORIDA 
  
CITY           SKY/WX    TMP DP  RH WIND       PRES   REMARKS
W PALM BEACH   FAIR      67  42  40 W6        30.06R                  
BOCA RATON     CLEAR     70  41  35 NW5       30.06R                  
FT LAUDER-EXEC FAIR      70  39  32 CALM      30.06R                  
FT LAUDERDALE  FAIR      69  39  33 NW5       30.06R                  
POMPANO BEACH  FAIR      70  39  32 CALM      30.06R                  
PEMBROKE PINES FAIR      67  40  37 N5        30.08R                  
OPA LOCKA      FAIR      71  41  33 CALM      30.07R                  
MIAMI          FAIR      70  41  34 CALM      30.07R                  
WEST KENDALL   FAIR      69  43  38 CALM      30.07R                  
HOMESTEAD      FAIR      70  42  37 NW5       30.06R                  

STATION/POSITION SKY/WX   TEMP    WIND        PRES    WAVE   SWELL
                          AIR SEA DIR/SP/G            HT/PER HT/PER
                          (F)     (DEG/KT/KT) (MB)    (FT/S) (FT/S)
VIRGINIA KEY               71 76   90/  1/  3 1017.3R
LAKE WORTH                 69 73  190/  4/  5 1018.9R
FOWEY ROCKS                70 77  130/  3/  4 1018.9R
SETTLEMENT POINT           69     360/  4/  6 1018.3R

$$